Location: Ch�risy
(50.2331°N, 2.9131°E)
Time: 23:02:52
(UTC+00:00)

Cosmos 1707 - Pass Details

Date: 17 January 2021
Orbit: 516 x 528 km, 82.5° (Epoch: 01 March)

Event Time Altitude Azimuth Distance (km) Brightness Sun altitude
Rises 16:52:35 0° 202° (SSW) 2,636 7.1 -5.8°
Reaches altitude 10° 16:54:46 10° 209° (SSW) 1,751 6.3 -6.1°
Maximum altitude 16:58:30 48° 284° (WNW) 690 3.8 -6.6°
Drops below altitude 10° 17:02:14 10° 360° (N) 1,760 5.2 -7.2°
Sets 17:04:27 0° 6° (N) 2,652 6.0 -7.5°
